Погода в Посус-ди-Калдас

Бразилия     21°47′03″S   46°33′34″W
темп.,
°C
ветер,
м/с
пор.,
м/с
влажн.,
%
обл.,
%
осадки,
мм/ч
давл.,
гПа
погр.,
м
27 февраля, сб
сб2700:00+15вюв129894 0.0 1015127
03:00+15в129987 0.0 101499
06:00+15в129953 0.0 101468
09:00+17всв249776 0.1 1016264
12:00+20св369390 2.9 1015696
15:00+19св369490 8.4 1013659
18:00+18всв389786 3.0 1013659
21:00+16всв269781 3.0 1014205
28 февраля, вс
вс2800:00+15в239695 0.0 101576
03:00+16в2119897 0.0 1014532
06:00+15в259977 0.0 1015186
09:00+18св388960 0.0 1016691
12:00+21ссв377894 0.1 1014930
15:00+24св466762 0.1 10121284
18:00+19св139359 0.8 1011183
21:00+17вюв129464 0.9 101443
1 марта, пн
пн100:00+16в249498 0.3 1014126
03:00+15в279894 0.3 1013247
06:00+15всв2510044 0.0 1014214
09:00+19св368753 0.0 1015566
12:00+23св467174 0.0 10141047
15:00+23св347384 0.4 10111061
18:00+20всв128996 0.1 101174
21:00+17юв129659 0.2 101426
2 марта, вт
вт200:00+17вюв129697 0.0 101533
03:00+16вюв129895 0.6 101471
06:00+16в129988 0.0 101577
09:00+19св368694 0.0 1017603
12:00+23св356896 0.0 1015965
15:00+24св356988 0.1 10131136
18:00+21св238565 0.1 1012117
21:00+17вюв119479 0.1 101523
3 марта, ср
ср300:00+17вюв119598 0.0 101626
03:00+16в119693 0.0 101624
06:00+15всв129699 0.0 101730
09:00+21св2579100 0.0 1018607
12:00+24с356789 0.1 10161210
15:00+23с128155 1.9 1014881
18:00+20в0191100 3.3 101323
21:00+18ююв1292100 4.2 101623